Theta_e
268 268 267 267 267 268 268 267 268 268 268 267 267 267 266 266 266 266 266 266 266 266 266 266 265 265 265 265 265 265 265 265 265 266 266 266 266 266 266 267 268 269
267 267 267 267 267 268 267 268 268 268 267 266 266 266 266 266 265 265 265 265 265 265 265 265 264 264 264 264 264 264 264 264 264 265 264 265 265 266 266 266 267 268
267 266 266 266 266 266 267 268 268 267 266 266 266 265 265 265 264 264 264 264 264 264 264 264 264 263 263 263 263 263 263 263 263 264 264 264 264 265 265 266 266 266
266 266 266 266 266 266 267 267 267 266 266 265 265 264 264 264 264 263 263 263 263 263 263 263 263 263 263 262 262 262 262 262 263 263 263 263 264 264 264 265 265 265
266 265 266 266 266 266 266 266 266 265 265 264 264 264 264 263 263 263 263 262 262 262 262 262 262 262 262 262 262 261 262 262 262 263 262 262 263 263 263 263 263 263
265 265 265 265 265 265 265 265 265 265 264 263 263 263 263 263 263 262 262 262 262 262 261 261 261 261 261 261 261 261 261 261 261 262 261 261 261 262 262 262 261 261
264 264 264 265 265 265 264 265 265 264 263 263 263 262 263 262 262 262 262 261 261 261 261 261 261 260 261 261 260 260 260 261 261 261 260 260 261 261 261 261 261 261
264 264 264 264 264 264 264 264 264 263 263 263 262 262 262 262 262 261 261 261 261 261 260 261 260 260 260 260 260 259 260 260 260 260 260 260 260 260 261 261 261 260
263 263 263 263 263 263 263 263 263 263 263 262 262 261 262 262 261 261 261 260 260 260 260 259 260 259 260 259 259 259 259 259 259 259 259 259 259 259 260 260 260 259
263 263 263 262 262 262 262 262 262 262 262 261 261 261 261 261 261 261 260 260 259 259 259 259 259 259 259 259 259 259 258 258 258 259 258 258 258 258 258 259 258 258
262 262 262 262 262 262 262 262 262 261 261 261 261 260 260 260 260 260 259 259 258 258 258 258 258 258 258 258 258 258 258 258 257 257 257 258 258 258 258 258 258 257
262 261 261 261 261 261 261 261 261 261 261 260 260 260 260 259 259 259 259 258 258 258 258 258 258 258 258 258 258 258 258 257 257 257 257 257 257 258 258 258 257 257
261 261 261 261 261 261 261 260 260 260 260 259 260 259 259 258 258 258 258 258 258 258 257 257 257 257 257 257 257 257 257 256 256 257 257 257 257 258 258 258 258 258
260 261 261 261 261 260 260 260 260 259 259 259 259 258 258 258 257 257 257 257 257 257 257 257 257 256 257 256 256 256 256 256 256 256 256 257 257 258 258 258 259 260
260 260 260 260 260 259 259 259 259 259 259 258 258 257 257 257 257 257 256 256 256 256 256 256 255 255 256 256 255 255 256 256 256 257 257 257 258 258 259 259 259 261
260 259 259 259 259 258 258 258 258 258 258 257 257 257 256 256 256 256 255 255 255 255 255 255 255 255 256 260 263 260 259 260 260 259 259 259 259 259 260 261 260 260
259 258 259 258 258 258 258 257 257 257 256 256 256 255 255 255 255 254 254 254 254 254 253 254 254 254 260 263 265 267 264 262 262 262 262 262 262 261 261 261 261 262
258 258 257 257 257 257 257 256 256 256 255 255 254 254 254 255 254 254 254 254 254 253 253 253 253 257 263 264 265 266 263 261 261 261 261 261 261 261 261 261 261 261
257 257 257 256 256 256 256 255 255 255 254 254 253 254 254 253 254 254 253 253 253 253 252 253 253 259 262 264 264 262 262 263 261 262 261 261 262 262 261 261 262 261
257 256 256 256 256 256 255 254 254 253 253 253 253 254 253 253 253 253 253 252 252 252 252 253 253 257 262 264 262 262 264 263 261 262 262 262 262 262 262 262 262 262
256 256 255 255 255 254 254 253 253 253 253 253 253 253 252 252 252 252 252 252 252 252 252 252 252 260 263 263 261 265 265 264 262 263 263 262 262 262 262 262 262 262
256 255 254 254 254 253 253 253 252 252 252 253 253 253 253 253 252 252 252 252 252 252 252 252 253 261 263 260 263 264 263 262 262 261 261 261 262 262 263 263 263 263
255 255 254 253 253 253 252 252 252 252 252 252 252 252 252 252 251 252 252 252 252 252 251 252 252 257 263 261 262 265 263 261 261 262 262 262 262 263 264 264 264 263
255 254 253 253 252 251 251 252 252 252 252 252 251 251 251 251 251 251 252 252 252 252 252 252 252 257 263 258 262 264 265 262 262 262 262 262 263 263 264 265 265 266
254 254 253 252 251 251 251 251 251 251 252 252 251 251 251 251 251 251 251 252 252 252 253 253 253 256 261 261 261 264 263 262 263 262 262 262 263 263 265 265 266 266
254 253 253 252 252 251 251 251 251 251 251 251 251 251 251 251 251 251 250 251 252 252 252 253 253 254 256 263 260 261 265 262 262 262 261 262 263 264 264 265 266 266
Wind_Speed
10 10 10 10 9 9 10 11 8 7 7 7 7 8 8 9 11 11 11 10 11 10 10 10 10 10 9 10 10 10 9 10 10 9 10 10 10 11 11 11 12 11
12 12 11 10 9 9 10 10 7 7 7 7 8 9 9 11 11 11 12 12 11 11 11 11 11 11 11 10 11 10 10 10 11 8 11 13 11 12 12 13 12 12
12 12 12 12 11 12 12 9 8 7 7 8 9 9 10 9 11 11 11 12 12 12 12 11 12 11 11 11 11 11 10 11 11 11 11 12 11 11 12 12 11 13
11 12 11 11 11 12 11 9 8 7 7 8 9 10 9 9 11 12 12 12 12 12 12 12 12 12 11 12 12 11 11 11 11 11 12 10 10 11 12 11 12 12
12 12 11 11 11 12 12 9 9 8 9 10 11 11 11 12 12 12 12 12 12 12 12 13 12 13 13 12 11 11 11 11 11 10 11 12 11 11 11 11 12 13
11 12 11 11 11 12 12 11 9 9 10 12 12 11 12 12 12 12 12 13 12 12 13 13 13 12 12 13 12 11 11 11 11 12 13 13 13 11 10 10 11 13
13 12 13 11 12 13 12 11 9 9 10 11 12 12 12 13 13 13 13 12 14 14 15 14 15 15 12 14 13 13 13 14 14 12 14 13 12 14 12 12 12 13
13 12 12 12 13 13 12 12 11 11 12 12 14 15 13 14 16 14 14 15 16 16 15 17 16 15 16 13 14 14 15 13 13 15 15 15 14 14 13 11 13 14
13 12 12 14 14 12 12 12 12 13 12 14 15 13 14 15 14 16 15 15 16 14 16 16 15 16 14 14 14 16 16 16 14 15 15 16 16 16 15 14 14 14
13 13 14 13 13 12 13 13 13 15 16 14 13 14 17 13 15 15 15 16 14 16 15 15 16 15 15 14 15 15 16 16 15 15 15 16 16 16 15 15 15 16
13 13 13 13 14 12 14 16 17 16 13 14 15 16 13 15 15 13 16 14 15 17 16 16 16 16 16 17 16 15 16 17 16 16 16 17 17 17 17 17 18 18
13 13 13 15 14 14 16 16 15 14 14 16 15 14 16 16 14 16 13 16 17 16 16 17 17 16 17 17 17 17 17 17 17 17 17 18 18 18 18 16 17 17
13 13 14 13 13 15 15 15 14 15 17 17 13 16 17 14 17 16 15 17 16 16 18 17 17 17 16 17 18 18 17 17 18 18 19 18 18 18 16 16 16 16
12 14 13 13 14 15 15 14 15 16 16 13 15 17 14 17 16 16 18 15 16 17 17 16 17 17 17 17 18 17 17 18 18 18 19 18 19 17 17 15 16 15
13 13 12 14 16 15 14 15 17 16 14 15 16 13 15 16 16 18 17 18 18 17 17 17 16 16 14 15 16 18 16 16 18 18 19 17 17 16 15 15 15 15
13 13 15 16 15 15 15 17 16 14 15 18 14 16 16 16 17 16 16 17 18 18 18 15 15 14 19 30 29 21 19 14 12 13 14 14 13 13 14 14 14 14
13 14 16 15 14 15 17 17 16 16 17 15 16 17 15 16 15 17 15 14 16 16 15 14 13 12 29 31 32 34 25 19 19 18 19 19 19 20 19 22 20 19
15 16 15 15 15 18 18 15 16 16 15 15 15 15 15 14 13 14 14 15 14 13 13 14 13 23 31 33 33 33 26 20 18 16 18 16 18 19 19 18 19 19
16 15 15 15 17 17 14 13 13 14 12 12 13 12 12 14 16 16 15 12 11 15 15 16 13 25 31 34 32 28 28 27 15 15 15 17 14 13 14 15 16 16
15 14 15 15 15 14 12 12 12 11 12 11 12 13 14 15 15 16 16 13 13 14 15 16 16 23 33 34 31 30 34 29 19 20 17 17 19 18 15 16 17 17
14 13 14 13 11 11 11 11 12 13 14 12 12 14 15 14 14 15 14 12 13 13 13 16 16 29 32 33 32 35 29 29 16 17 15 16 16 16 18 18 18 16
14 13 12 13 12 11 14 14 14 14 14 13 13 14 13 12 13 12 13 14 14 13 14 17 16 29 32 24 33 34 35 19 17 16 17 16 16 16 19 17 18 19
12 13 13 14 12 15 15 15 16 16 13 11 13 15 15 15 15 15 14 13 14 14 15 15 15 24 32 27 30 37 27 18 18 16 16 16 15 18 18 19 19 20
12 12 13 13 13 14 15 14 14 13 13 12 12 15 15 15 13 16 14 12 13 16 14 15 16 22 32 24 26 37 33 22 17 14 15 16 17 19 15 16 21 28
12 12 12 12 12 14 13 13 13 13 13 11 11 12 14 13 15 14 14 13 12 14 20 20 17 21 29 25 26 34 26 18 17 15 16 17 17 18 17 16 18 19
10 12 13 12 14 14 13 12 11 11 13 12 12 11 13 15 14 14 15 13 12 13 14 15 17 17 21 34 28 27 32 22 15 14 15 17 17 17 17 16 14 13
Wind_Direction
347 341 333 326 323 321 323 321 323 332 332 336 333 331 333 326 328 327 324 323 322 319 317 316 315 311 308 308 304 299 297 293 292 293 293 293 291 291 289 288 288 286
341 337 327 323 320 321 320 317 325 333 335 336 334 328 325 326 324 326 323 321 319 317 316 313 310 309 307 303 302 300 295 293 290 290 291 289 288 289 287 289 291 291
333 331 326 326 325 324 320 322 327 331 333 329 327 327 324 323 321 320 318 317 315 312 311 309 308 305 302 301 301 297 292 290 288 288 287 285 284 285 286 290 288 288
328 325 322 321 323 324 320 321 325 326 329 328 327 325 319 316 315 313 312 311 308 307 305 305 304 303 301 297 297 290 288 286 284 287 285 282 281 281 284 286 284 283
330 327 324 321 322 324 319 315 322 326 329 326 325 323 319 315 313 313 311 310 308 304 305 304 302 300 299 296 294 292 289 287 287 287 285 284 282 282 281 283 282 282
326 325 322 320 320 321 316 312 318 326 327 325 321 318 312 311 311 309 310 308 307 305 304 304 303 301 302 297 295 290 290 289 288 289 286 284 285 280 280 280 280 279
326 323 321 319 318 317 314 311 317 324 324 318 315 311 312 312 308 307 306 305 305 305 305 302 303 300 297 299 294 291 289 290 289 285 284 283 283 283 278 278 277 278
323 322 318 320 318 315 314 314 318 321 318 315 313 313 312 310 309 307 307 306 307 303 301 302 296 294 295 291 289 288 288 289 287 288 285 282 282 280 280 279 282 280
321 320 321 319 317 315 315 318 318 317 316 315 314 311 310 310 306 307 303 304 302 299 300 296 295 292 291 285 284 284 283 283 282 282 280 280 279 276 278 280 279 279
319 319 319 318 317 317 317 318 318 316 316 312 309 310 309 305 307 303 303 302 298 299 296 295 295 292 290 287 285 283 282 281 281 278 275 274 275 276 277 277 276 277
314 317 317 318 317 316 316 317 317 316 311 311 311 308 305 307 305 304 302 299 299 299 297 294 293 293 289 287 284 282 281 281 279 276 274 273 273 272 273 273 272 270
315 317 317 317 316 316 316 316 314 311 311 311 309 306 307 305 303 305 301 300 299 296 294 294 293 293 288 285 284 283 281 280 278 276 275 274 273 271 270 265 265 265
317 318 318 315 315 315 315 313 310 310 310 308 306 306 304 303 304 300 300 300 295 295 295 295 294 290 286 285 284 283 279 277 277 276 275 274 272 266 258 255 256 256
317 319 316 315 314 314 313 310 309 310 307 304 306 305 302 303 299 302 300 297 296 296 294 295 292 289 287 285 283 279 277 275 272 271 269 265 264 257 254 249 253 256
317 317 315 315 316 313 311 311 311 308 305 307 305 301 302 299 301 300 299 296 297 295 294 294 291 288 286 285 284 279 267 257 258 255 257 254 253 250 246 244 251 255
316 316 316 316 314 312 312 313 311 309 309 308 304 303 303 303 301 298 296 297 296 296 295 290 288 285 284 284 282 280 277 264 250 244 244 241 245 247 249 245 242 241
316 316 317 314 312 311 312 311 310 310 308 304 304 304 302 301 300 299 296 293 295 295 292 288 284 282 290 290 289 288 286 282 280 279 276 276 274 274 272 273 271 266
317 316 314 311 313 313 312 308 308 307 304 304 301 301 302 300 296 294 294 297 296 291 285 287 285 291 295 293 293 290 286 284 282 278 276 268 271 267 266 267 265 263
316 314 311 311 313 312 308 308 306 305 301 301 301 299 299 299 300 301 296 293 289 293 292 290 283 294 296 294 292 290 290 289 283 277 275 278 263 247 250 253 256 257
313 312 310 310 309 308 307 306 305 298 300 300 299 301 302 300 297 297 297 294 292 292 292 290 288 294 295 294 293 291 292 292 291 289 278 271 271 267 259 261 255 254
312 311 310 308 305 305 303 303 304 303 303 304 304 304 303 302 300 302 298 294 292 291 286 289 288 295 296 296 295 295 294 296 294 289 284 282 276 268 266 264 259 256
313 311 309 309 309 309 311 309 309 306 306 307 306 303 298 295 295 292 293 296 296 293 291 290 290 297 298 294 296 299 299 299 296 290 280 270 265 266 268 266 263 261
312 312 309 310 310 311 310 310 311 310 308 308 305 305 305 303 301 299 299 297 297 294 293 289 289 296 299 298 298 301 302 299 293 287 283 277 270 277 271 268 265 260
309 307 306 306 307 305 307 306 305 303 302 307 304 305 305 303 302 302 300 295 293 296 293 292 293 296 301 300 299 302 303 301 292 278 270 271 270 276 268 269 267 253
306 307 304 302 300 302 304 303 302 302 300 301 297 299 297 299 301 300 299 300 290 291 296 297 295 297 300 302 300 302 300 300 300 293 287 280 273 269 268 264 265 260
308 308 306 305 306 304 303 300 299 298 300 300 300 300 301 302 298 300 299 298 294 295 297 295 295 297 297 304 306 306 306 305 300 290 276 272 271 270 275 266 259 261